Location: Unspecified
(0.0000°N, 0.0000°E)
Time: 03:13:00
(UTC+00:00)

Hubble Space Telescope - Pass Details

Date: 14 November 2019
Orbit: 536 x 540 km, 28.5° (Epoch: 10 November)

Event Time Altitude Azimuth Distance (km) Brightness Sun altitude
Exits shadow 05:15:30 - 295° (WNW) 1,922 2.9 -6.9°
Reaches altitude 10° 05:15:52 10° 294° (WNW) 1,780 2.7 -6.8°
Maximum altitude 05:19:58 71° 210° (SSW) 567 0.9 -5.8°
Drops below altitude 10° 05:24:05 10° 126° (SE) 1,782 4.9 -4.8°
Sets 05:26:21 0° 124° (SE) 2,673 6.2 -4.3°
